Johns Riffle, Oregon, United States
Lat: 42.72N, Lon: 123.86W
Wx Zone: ORZ024
Local Info
Past Weather Observations for Today

NOTE: This archive is for the closest National Weather Service station to Johns Riffle. Information may differ from the station used for current weather conditions.

Click here for Long-term Archive

Time Weather Temperature Dewpoint Humidity Pressure Winds Precip Visibility
20:56
Clear
55°F / 13°C 39°F / 4°C 55% 30.21 in
(1023 mb)
N 10.4 mph
(N 17 kph)
- 10SM
19:56
Clear
55°F / 13°C 37°F / 3°C 51% 30.21 in
(1023 mb)
N 10.4 mph
(N 17 kph)
- 10SM
18:56
Clear
61°F / 16°C 37°F / 3°C 42% 30.21 in
(1023 mb)
Variable 5.8 mph
(Variable 9 kph)
- 10SM
17:56
Clear
64°F / 18°C 39°F / 4°C 40% 30.18 in
(1022 mb)
Calm - 10SM
16:56
Clear
66°F / 19°C 39°F / 4°C 37% 30.21 in
(1023 mb)
Variable 3.5 mph
(Variable 6 kph)
- 10SM
15:56
Clear
70°F / 21°C 39°F / 4°C 33% 30.21 in
(1023 mb)
Variable 3.5 mph
(Variable 6 kph)
- 10SM
14:56
Clear
68°F / 20°C 43°F / 6°C 40% 30.21 in
(1023 mb)
Variable 3.5 mph
(Variable 6 kph)
- 10SM
13:56
Clear
70°F / 21°C 45°F / 7°C 40% 30.21 in
(1023 mb)
Variable 3.5 mph
(Variable 6 kph)
- 10SM
12:56
Clear
66°F / 19°C 45°F / 7°C 46% 30.21 in
(1023 mb)
Calm - 10SM
11:56
Clear
64°F / 18°C 45°F / 7°C 49% 30.21 in
(1023 mb)
Variable 3.5 mph
(Variable 6 kph)
- 10SM
10:56
Partly Cloudy
61°F / 16°C 45°F / 7°C 55% 30.21 in
(1023 mb)
Variable 3.5 mph
(Variable 6 kph)
- 10SM
09:56
Partly Cloudy
57°F / 14°C 46°F / 8°C 67% 30.21 in
(1023 mb)
Variable 3.5 mph
(Variable 6 kph)
- 10SM
09:14
Partly Cloudy
55°F / 13°C 46°F / 8°C 72% 30.21 in
(1023 mb)
Variable 4.6 mph
(Variable 7 kph)
- 10SM
09:07
Mostly Cloudy
55°F / 13°C 46°F / 8°C 72% 30.21 in
(1023 mb)
N 5.8 mph
(N 9 kph)
- 10SM
08:56
Partly Cloudy
55°F / 13°C 46°F / 8°C 72% 30.21 in
(1023 mb)
Variable 3.5 mph
(Variable 6 kph)
- 10SM
07:56
Partly Cloudy
52°F / 11°C 48°F / 9°C 88% 30.21 in
(1023 mb)
NNE 6.9 mph
(NNE 11 kph)
- 10SM
07:47
Partly Cloudy
52°F / 11°C 46°F / 8°C 82% 30.21 in
(1023 mb)
NE 4.6 mph
(NE 7 kph)
- 10SM
07:18
Mostly Cloudy
48°F / 9°C 46°F / 8°C 94% 30.18 in
(1022 mb)
NE 9.2 mph
(NE 15 kph)
- 10SM
07:09
Overcast
Fog And Mist
48°F / 9°C 46°F / 8°C 94% 30.18 in
(1022 mb)
NE 9.2 mph
(NE 15 kph)
- 2SM
07:05
Obscured
Fog And Mist
48°F / 9°C 46°F / 8°C 94% 30.18 in
(1022 mb)
N 8.1 mph
(N 13 kph)
- 1SM
06:56
Obscured
Fog
48°F / 9°C 48°F / 9°C 100% 30.18 in
(1022 mb)
N 6.9 mph
(N 11 kph)
- 1/4SM
06:53
Obscured
Fog
48°F / 9°C 48°F / 9°C 100% 30.18 in
(1022 mb)
N 6.9 mph
(N 11 kph)
- 1/4SM
06:36
Obscured
Fog And Mist
46°F / 8°C 46°F / 8°C 100% 30.18 in
(1022 mb)
N 8.1 mph
(N 13 kph)
- 3/4SM
06:23
Obscured
Fog
46°F / 8°C 46°F / 8°C 100% 30.18 in
(1022 mb)
N 9.2 mph
(N 15 kph)
- 1/4SM
06:11
Obscured
Fog
46°F / 8°C 46°F / 8°C 100% 30.18 in
(1022 mb)
N 8.1 mph
(N 13 kph)
- 1/2SM
05:56
Obscured
Fog
46°F / 8°C 46°F / 8°C 100% 30.18 in
(1022 mb)
N 9.2 mph
(N 15 kph)
- 1/4SM
04:56
Obscured
Fog
46°F / 8°C 46°F / 8°C 100% 30.15 in
(1021 mb)
N 8.1 mph
(N 13 kph)
- 1/4SM
04:44
Obscured
Fog
46°F / 8°C 46°F / 8°C 100% 30.15 in
(1021 mb)
N 9.2 mph
(N 15 kph)
- 1/4SM
04:17
Obscured
Fog
46°F / 8°C 46°F / 8°C 100% 30.15 in
(1021 mb)
N 9.2 mph
(N 15 kph)
- 1/4SM
03:56
Obscured
Fog
46°F / 8°C 46°F / 8°C 100% 30.15 in
(1021 mb)
N 10.4 mph
(N 17 kph)
- 1/2SM
03:49
Obscured
Fog
46°F / 8°C 46°F / 8°C 100% 30.15 in
(1021 mb)
N 9.2 mph
(N 15 kph)
- 1/2SM
02:56
Obscured
Fog
46°F / 8°C 46°F / 8°C 100% 30.15 in
(1021 mb)
N 10.4 mph
(N 17 kph)
- 1/4SM
02:27
Obscured
Fog
46°F / 8°C 46°F / 8°C 100% 30.12 in
(1020 mb)
N 6.9 mph
(N 11 kph)
- 1/4SM
02:08
Obscured
Fog
48°F / 9°C 46°F / 8°C 94% 30.12 in
(1020 mb)
N 6.9 mph
(N 11 kph)
- 1/2SM
01:56
Obscured
Fog And Mist
46°F / 8°C 46°F / 8°C 100% 30.12 in
(1020 mb)
N 8.1 mph
(N 13 kph)
- 1SM
01:45
Obscured
Fog And Mist
48°F / 9°C 46°F / 8°C 94% 30.12 in
(1020 mb)
N 9.2 mph
(N 15 kph)
- 1SM
01:40
Mostly Cloudy
Fog And Mist
46°F / 8°C 46°F / 8°C 100% 30.12 in
(1020 mb)
N 9.2 mph
(N 15 kph)
- 1 3/4SM
01:18
Mostly Cloudy
46°F / 8°C 46°F / 8°C 100% 30.12 in
(1020 mb)
N 10.4 mph
(N 17 kph)
- 9SM
00:56
Partly Cloudy
46°F / 8°C 46°F / 8°C 100% 30.15 in
(1021 mb)
N 8.1 mph
(N 13 kph)
- 10SM
00:26
Partly Cloudy
48°F / 9°C 46°F / 8°C 94% 30.15 in
(1021 mb)
N 9.2 mph
(N 15 kph)
- 10SM
00:06
Partly Cloudy
48°F / 9°C 46°F / 8°C 94% 30.15 in
(1021 mb)
Variable 6.9 mph
(Variable 11 kph)
- 10SM
Time Weather Temperature Dewpoint Humidity Pressure Winds Precip Visibility


Weather for websites

WeatherForYou.com, LLC is not responsible for any damages or problems caused by this service. Current weather conditions are obtained from the closest station including government and personal stations which may have varying degrees of accuracy. Weather forecasts are derived from the NOAA NDFD. Like all things, this site belongs to Jesus Christ... He just trusts us to maintain it. If you have any questions or comments email webmaster@weatherforyou.com

Copyright © 2015, WeatherForYou.com LLC. All rights reserved.